X-SAT

Last updated on Mon Sep 21 2026 00:03:33 GMT+0000 (Coordinated Universal Time)

1 37389U 11015C 26263.63393367 -.00000061 00000+0 -84568-5 0 9991 2 37389 98.3639 236.1642 0015289 64.3368 295.9390 14.25228625801271
UTC large
Height (km)
Speed (km/s)
/
Latitude / Longitude
Inclination (degrees)
Orbital Period (minutes)
Azimuth
Elevation
Range (km)
Doppler Factor

Next 0 passes for location: London (51.5072 / 0.1276)

No passes found over London.
X-SAT